Regional Weather Roundup
Issued by NWS

Home | Current Version | Previous Version | Text Only | Print | Product List | Glossary Off
Versions: 1 2 3 4 5 6 7 8 9 10 11 12 13 14 15 16 17 18 19 20 21 22 23 24 25 26 27 28 29 30 31 32 33 34 35 36 37 38 39 40 41 42 43 44 45 46 47 48 49 50

000
ASUS45 KTFX 230710
RWRMT
MONTANA REGIONAL WEATHER ROUNDUP
NATIONAL WEATHER SERVICE GREAT FALLS MT
100 AM MDT THU MAR 23 2017

NOTE: "FAIR" INDICATES FEW OR NO CLOUDS BELOW 12000 FEET WITH NO
SIGNIFICANT WEATHER AND/OR OBSTRUCTIONS TO VISIBILITY.

MTZ001>007-043-230800-
WEST OF THE DIVIDE

CITY           SKY/WX    TMP DP  RH WIND       PRES   REMARKS
KALISPELL      CLOUDY    38  37  97 CALM      29.88S FOG
MISSOULA       CLOUDY    43  38  82 N10       29.92R
BUTTE          CLOUDY    33  26  75 SE5       29.85S
MULLAN PASS    CLOUDY    29  29 100 SW7       29.89S WCI  22
ANACONDA         N/A     37  28  70 NW5       29.86S
DEER LODGE       N/A     39  30  70 N3        29.89S
EUREKA           N/A     43  37  81 SE6       29.87R
HAMILTON         N/A     41  34  75 E5        29.90R
RONAN            N/A     42  40  93 E1        29.96R
$$

MTZ008-052>055-230800-
SOUTHWEST MONTANA

CITY           SKY/WX    TMP DP  RH WIND       PRES   REMARKS
BOZEMAN        CLOUDY    38  35  89 S5        29.83R
DILLON         CLOUDY    40  30  67 S5        29.82S
W YELLOWSTONE  CLOUDY    27  27 100 CALM      29.85F
ENNIS          CLOUDY    39  28  65 S8        29.86F
THREE FORKS      N/A     37  35  92 CALM      29.83S
$$

MTZ009-010-012-014-046-048-049-054-230800-
EAST SLOPES AND CENTRAL MONTANA

CITY           SKY/WX    TMP DP  RH WIND       PRES   REMARKS
CUT BANK       PTCLDY    39  29  67 W14       29.77S WCI  31
GREAT FALLS    PTCLDY    32  24  72 SW8       29.80S WCI  25
HELENA         CLOUDY    44  30  57 CALM      29.83S
AUGUSTA          N/A     40  28  62 W6        29.81S
BOWMANS CRNR     N/A     37  26  64 SW9       29.80S WCI  31
CHOTEAU          N/A     36  28  75 SW8       29.82S WCI  29
CONRAD           N/A     40  32  73 SW10      29.82R
FAIRFIELD        N/A     36  26  68 W5        29.80R
POWER            N/A     28  24  85 W6        29.79R WCI  21
RAYNESFORD     MOCLDY    38  25  60 CALM      29.82R
$$

MTZ011-013-016-021-045-047-050-051-230800-
NORTH CENTRAL MONTANA

CITY           SKY/WX    TMP DP  RH WIND       PRES   REMARKS
HAVRE          CLEAR     34  29  82 SW7       29.77R WCI  28
LEWISTOWN      CLOUDY    37  28  70 SW3       29.80R
N BAR RANCH      N/A     37  34  87 NW6       29.83R
CHINOOK          N/A     36  28  75 CALM      29.78R
DENTON         MOCLDY    44  27  51 NW12      29.77R
FORT BENTON      N/A     39  28  65 MISG      29.82R
GEYSER         MOCLDY    41  26  56 SW14      29.80R
GRASS RANGE    MOCLDY    39  33  79 SW7       29.77R
STANFORD       MOCLDY    42  27  55 W7        29.81R
WINIFRED         N/A     46  26  47 NW8       29.80R
$$

MTZ017>020-022>027-061-062-230800-
NORTHEAST MONTANA

CITY           SKY/WX    TMP DP  RH WIND       PRES   REMARKS
GLASGOW        PTCLDY    43  35  73 E9        29.75R
JORDAN           N/A     47  39  74 CALM      29.76S
SIDNEY         PTCLDY    31  29  92 S3        29.78S
WOLF POINT     CLOUDY    38  35  89 CALM      29.76S
MALTA          PTCLDY    37  32  81 SW3       29.76R
PLENTYWOOD       N/A     37  36  93 CALM      29.75S
POPLAR           N/A     39  36  87 N5        29.76S
$$

MTZ028>42-056>058-230800-
SOUTHCENTRAL AND SOUTHEAST MONTANA

CITY           SKY/WX    TMP DP  RH WIND       PRES   REMARKS
BAKER          PTCLDY    41  36  82 CALM      29.77F
BILLINGS       CLOUDY    46  42  86 NE6       29.77F
LIVINGSTON     CLOUDY    41  33  73 NW8       29.81R
MILES CITY     CLOUDY    46  39  76 W7        29.79R
BIG TIMBER     CLOUDY    45  34  65 W8        29.83S
FORSYTH          N/A     48  39  71 CALM      29.77F
HARLOWTON      MOCLDY    43  26  50 NW3       29.80R
LAUREL           N/A     44  36  73 CALM      29.79R
$$

REGIONAL REPORTS...DAKOTAS

CITY           SKY/WX    TMP DP  RH WIND       PRES   REMARKS
WILLISTON      CLEAR     30  28  92 CALM      29.78S
MINOT          CLOUDY    34  29  82 S8        29.80S WCI  27
DICKINSON      CLOUDY    34  29  82 CALM      29.76F
BEACH            N/A    N/A N/A N/A MISG        N/A
TIOGA            N/A     34  34 100 S5        29.79S
WATFORD CITY     N/A     30  30 100 CALM      29.78S
BISMARCK       CLEAR     33  27  78 SE6       29.85S WCI  28
GRAND FORKS    CLOUDY    34  21  59 S17G25    29.98F WCI  23
FARGO          PTCLDY    36  24  62 S25G35    30.00F WCI  24
BUFFALO SD       N/A     42  36  79 NE12      29.68S
RAPID CITY     CLOUDY    48  38  68 S7        29.72F
$$

REGIONAL REPORTS...WYOMING/IDAHO/WASHINGTON

CITY           SKY/WX    TMP DP  RH WIND       PRES   REMARKS
GILLETTE       CLOUDY    48  41  76 CALM      29.74F
SHERIDAN       CLOUDY    41  38  89 SW3       29.77S
BUFFALO WY     CLOUDY    46  38  73 NW9       29.77S
CODY           CLOUDY    49  32  52 N7        29.79S
YELLOWSTONE LA   N/A     28  27  96 CALM      29.87F
IDAHO FALLS    CLOUDY    42  39  89 SW8       29.82F
SALMON         CLOUDY    43  30  61 CALM      29.85S
BOISE          MOCLDY    46  39  76 W12       29.91R
SPOKANE        PTCLDY    42  39  89 SW10      29.93S
$$

REGIONAL REPORTS...ALBERTA

CITY           SKY/WX    TMP DP  RH WIND       PRES   REMARKS
EDMONTON       MOCLDY    21  18  86 CALM      29.73R
CALGARY        PTCLDY    37  28  70 SW6       29.67S
LETHBRIDGE     MOCLDY    37  28  70 SW12      29.74R WCI  30
MEDICINE HAT   CLEAR     37  27  65 S6        29.72R
WATERTON GATE    N/A     41  28  60 SW18G28     N/A
CARDSTON         N/A     39  28  65 S5          N/A
MILK RIVER       N/A     36  30  80 NW2         N/A
$$

REGIONAL REPORTS...SASKATCHEWAN

CITY           SKY/WX    TMP DP  RH WIND       PRES   REMARKS
SWIFT CURRENT  CLEAR     36  32  87 W9        29.70R WCI  29
REGINA         CLEAR     28  28 100 S3        29.69R
SASKATOON      CLOUDY    30  27  86 W14G22    29.70R WCI  20
CYPRESS HILLS    N/A     39  19  45 NW6         N/A
VAL MARIE        N/A     28  25  86 CALM        N/A
ROCKGLEN         N/A     37  32  81 SW10        N/A  WCI  30
$$



USA.gov is the U.S. government's official web portal to all federal, state and local government web resources and services.